Location: Caltech
(34.1382°N, 118.1253°W)
Time: 20:02:48
(UTC-07:00)

Tiros 1 despin weight - Visible Passes

Search period start: 29 May 2016 00:00
Search period end: 08 June 2016 00:00
Orbit: 595 x 645 km, 48.2° (Epoch: 29 May)

Date Brightness Start Highest point End Pass type
(mag) Time Alt. Az. Time Alt. Az. Time Alt. Az.
29 May ? 01:31:52 17° NW 01:33:05 19° NNW 01:36:23 10° NNE visible
29 May ? 03:13:38 10° NNW 03:16:09 14° N 03:18:38 10° NE visible
29 May ? 04:55:02 10° NW 04:59:00 27° NNE 05:02:53 10° E visible
30 May ? 00:10:01 25° NNE 00:10:01 25° NNE 00:12:28 10° NE visible
30 May ? 01:48:12 10° NW 01:50:55 15° N 01:53:38 10° NNE visible
30 May ? 03:31:02 10° NNW 03:34:02 17° NNE 03:37:00 10° NE visible
30 May ? 05:12:07 10° NW 05:16:33 45° NNE 05:20:54 10° ESE visible
30 May ? 22:47:09 18° NE 22:47:09 18° NE 22:48:24 10° NE visible
31 May ? 00:23:58 18° NW 00:25:51 22° NNW 00:29:32 10° NNE visible
31 May ? 02:06:22 10° NNW 02:08:50 14° N 02:11:18 10° NNE visible
31 May ? 03:48:09 10° NNW 03:51:49 22° NNE 03:55:25 10° ENE visible
31 May ? 21:15:25 10° SSW 21:19:34 32° SE 21:23:44 10° ENE visible
31 May ? 22:56:35 10° WSW 23:01:05 45° NNW 23:05:36 10° NE visible
01 Jun ? 00:40:35 10° NW 00:43:38 17° NNW 00:46:40 10° NNE visible
01 Jun ? 02:24:00 10° NNW 02:26:45 15° N 02:29:28 10° NE visible
01 Jun ? 04:05:13 10° NW 04:09:27 34° NNE 04:13:37 10° E visible
01 Jun ? 21:32:03 10° SW 21:36:43 67° SE 21:41:24 10° ENE visible
01 Jun ? 23:14:36 10° W 23:18:39 27° NNW 23:22:41 10° NE visible
02 Jun ? 00:58:56 10° NW 01:01:31 14° N 01:04:05 10° NNE visible
02 Jun ? 02:41:15 10° NNW 02:44:35 19° NNE 02:47:53 10° ENE visible
02 Jun ? 04:22:20 10° NW 04:26:55 61° NE 04:31:25 10° ESE visible
02 Jun ? 21:49:22 10° WSW 21:54:00 62° NW 21:58:41 10° NE visible
02 Jun ? 23:32:58 10° WNW 23:36:21 19° NNW 23:39:45 10° NNE visible
03 Jun ? 01:16:52 10° NNW 01:19:25 14° N 01:21:59 10° NE visible
03 Jun ? 02:58:20 10° NW 03:02:18 27° NNE 03:06:13 10° E visible
03 Jun ? 04:39:38 10° WNW 04:44:13 67° SW 04:48:43 10° SE visible
03 Jun ? 20:25:19 10° SSW 20:29:46 45° SE 20:34:16 10° ENE visible
03 Jun ? 22:07:10 10° W 22:11:29 35° NNW 22:15:48 10° NE visible
03 Jun ? 23:51:23 10° NW 23:54:12 15° N 23:56:59 10° NNE visible
04 Jun ? 01:34:17 10° NNW 01:37:19 17° NNE 01:40:18 10° NE visible
04 Jun ? 03:15:24 10° NW 03:19:52 44° NNE 03:24:15 10° ESE visible
04 Jun ? 04:57:18 10° WNW 05:01:21 31° SW 05:05:21 10° SSE visible
04 Jun ? 20:42:17 10° SW 20:46:59 88° NNW 20:51:43 10° NE visible
04 Jun ? 22:25:21 10° WNW 22:29:07 23° NNW 22:32:52 10° NNE visible
05 Jun ? 00:09:34 10° NNW 00:12:06 14° N 00:14:37 10° NNE visible
05 Jun ? 01:51:26 10° NNW 01:55:06 22° NNE 01:58:43 10° ENE visible
05 Jun ? 03:32:35 10° NW 03:37:15 84° NE 03:41:50 10° SE visible
05 Jun ? 20:59:50 10° WSW 21:04:22 46° NNW 21:08:55 10° NE visible
05 Jun ? 22:43:46 10° NW 22:46:54 17° NNW 22:50:00 10° NNE visible
06 Jun ? 00:27:15 10° NNW 00:30:01 15° N 00:32:45 10° NE visible
06 Jun ? 02:08:30 10° NW 02:12:44 33° NNE 02:16:56 10° E visible
06 Jun ? 03:50:02 10° WNW 03:54:28 47° SW 03:58:51 10° SSE visible
06 Jun ? 21:17:50 10° W 21:21:54 28° NNW 21:25:59 10° NE visible
06 Jun ? 23:02:07 10° NW 23:04:46 15° N 23:07:23 10° NNE visible
07 Jun ? 00:44:31 10° NNW 00:47:51 19° NNE 00:51:10 10° ENE visible
07 Jun ? 02:25:36 10° NW 02:28:18 33° NNW 02:28:18 33° NNW visible
07 Jun ? 21:36:09 10° WNW 21:39:37 20° NNW 21:43:04 10° NNE visible
07 Jun ? 23:20:05 10° NNW 23:22:41 14° N 23:25:16 10° NE visible
